date,time,DOY,Ta_1_1_1,RH_1_1_1,LWin_1_1_1,LWout_1_1_1,SWin_1_1_1,SWout_1_1_1,PPFD_1_1_1,SWC_1_1_1,Ts_1_1_1
[yyyy-mm-dd],[HH:MM],[ddd.ddd],[K],[%],[W+1m-2],[W+1m-2],[W+1m-2],[W+1m-2],[µmol+1m-2s-1],[m+3m-3],[K]
2013-01-30,00:30,30.020,270.01499999999999,96.978333333333325,-3.4306666666666676,-7.2009999999999987,-0.55833333333333335,-0.26033333333333331,1.66666666666666699E-003,-9999.0,279.90999999999991
2013-01-30,01:00,30.041,269.70333333333326,95.516000000000005,-3.2929999999999997,-7.5993333333333331,-0.54400000000000004,-0.40433333333333338,3.99999999999999922E-003,-9999.0,279.90999999999991
2013-01-30,01:30,30.062,269.31666666666672,95.570666666666710,-3.2139999999999995,-7.7606666666666655,-0.61000000000000010,-0.35466666666666674,2.66666666666666658E-003,-9999.0,279.90999999999991
2013-01-30,02:00,30.083,268.98200000000003,95.658999999999963,-3.0339999999999994,-7.2759999999999998,-0.51233333333333320,-0.16566666666666666,3.00000000000000006E-003,-9999.0,279.90999999999991
2013-01-30,02:30,30.104,268.77533333333338,95.495999999999967,-3.0250000000000004,-7.1200000000000001,-0.44800000000000001,-7.36666666666666858E-002,2.00000000000000004E-003,-9999.0,279.90999999999991
2013-01-30,03:00,30.124,268.56133333333332,92.783000000000001,-3.0369999999999999,-7.8433333333333346,-0.34400000000000003,-0.50500000000000000,1.03333333333333350E-002,-9999.0,279.90999999999991
2013-01-30,03:30,30.145,268.33433333333340,93.049666666666695,-3.2593333333333332,-8.3590000000000000,-0.33233333333333326,-0.52333333333333354,4.66666666666666619E-003,-9999.0,279.90999999999991
2013-01-30,04:00,30.166,268.22666666666669,91.940333333333328,-3.6730000000000009,-9.4283333333333328,-0.24000000000000010,-0.73999999999999999,4.66666666666666705E-003,-9999.0,279.90999999999991
2013-01-30,04:30,30.187,268.15133333333330,90.320666666666682,-3.9943333333333326,-9.7199999999999989,-0.25100000000000006,-0.96633333333333338,5.66666666666666621E-003,-9999.0,279.90999999999991
2013-01-30,05:00,30.208,267.97399999999993,87.458333333333329,-4.2560000000000002,-9999.0,-0.27833333333333338,-1.3839999999999999,7.00000000000000188E-003,-9999.0,279.90999999999991
2013-01-30,05:30,30.229,267.76233333333334,87.422000000000011,-4.1786666666666656,-9999.0,-0.19700000000000001,-1.3276666666666668,1.66666666666666677E-003,-9999.0,279.90999999999991
2013-01-30,06:00,30.249,267.64366666666666,88.538333333333327,-3.8963333333333328,-9.7712500000000002,-0.12300000000000000,-1.1366666666666665,2.00000000000000004E-003,-9999.0,279.90999999999991
2013-01-30,06:30,30.270,267.41766666666672,89.401666666666671,-3.9100000000000010,-9.8158333333333356,-0.13066666666666665,-1.0186666666666668,8.00000000000000017E-003,-9999.0,279.90999999999991
2013-01-30,07:00,30.291,267.29666666666668,88.984333333333353,-3.7666666666666662,-9.8687500000000004,-2.56666666666666744E-002,-1.0413333333333332,1.03333333333333315E-002,-9999.0,279.90999999999991
2013-01-30,07:30,30.312,267.18033333333329,88.438000000000002,-3.9303333333333330,-9999.0,4.83333333333333393E-002,-0.93933333333333346,0.54766666666666663,-9999.0,279.90999999999991
2013-01-30,08:00,30.333,267.02333333333337,88.106000000000037,-4.0293333333333328,-9999.0,0.26866666666666666,6.56666666666666649E-002,3.4526666666666657,-9999.0,279.90999999999991
2013-01-30,08:30,30.354,266.77899999999988,87.799666666666681,-3.6993333333333345,-9.9199999999999999,0.95299999999999996,3.1079999999999997,10.312333333333333,-9999.0,279.90999999999991
2013-01-30,09:00,30.374,266.51766666666674,87.867666666666636,-3.4579999999999993,-9.8026315789473646,2.2616666666666672,9.1306666666666683,24.324999999999999,-9999.0,279.90999999999991
2013-01-30,09:30,30.395,266.29833333333340,86.601666666666688,-3.4853333333333341,-9.9600000000000009,4.2780000000000005,18.347666666666665,46.278666666666659,-9999.0,279.90999999999991
2013-01-30,10:00,30.416,266.06033333333346,86.280666666666676,-3.4626666666666668,-9999.0,4.7763333333333344,20.882666666666669,53.229666666666660,-9999.0,279.90999999999991
2013-01-30,10:30,30.437,265.91866666666664,87.112666666666669,-3.6579999999999999,-9999.0,4.6899999999999995,21.130333333333329,55.666333333333341,-9999.0,279.90999999999991
2013-01-30,11:00,30.458,265.89633333333330,87.404333333333355,-4.0473333333333334,-9.5011111111111113,5.4286666666666656,24.355000000000000,65.651666666666671,-9999.0,279.90999999999991
2013-01-30,11:30,30.479,265.79699999999997,89.909666666666681,-4.0249999999999995,-7.4366666666666665,15.389666666666669,59.983666666666672,143.47633333333332,-9999.0,279.90999999999991
2013-01-30,12:00,30.499,265.24566666666664,89.886999999999972,-3.7683333333333326,-7.0539999999999994,25.312333333333338,93.387000000000000,211.49600000000001,-9999.0,279.90999999999991
2013-01-30,12:30,30.520,264.51100000000002,87.557999999999993,-3.4689999999999999,-8.7046428571428560,22.128000000000004,85.600333333333310,193.62333333333333,-9999.0,279.90999999999991
2013-01-30,13:00,30.541,263.34800000000001,84.948000000000022,-2.9720000000000000,-8.7700000000000014,19.129000000000005,73.449666666666658,171.05033333333330,-9999.0,279.90999999999991
2013-01-30,13:30,30.562,262.81400000000008,85.107000000000014,-3.0376666666666661,-8.4589999999999979,18.290000000000003,70.415999999999997,163.49666666666670,-9999.0,279.90999999999991
2013-01-30,14:00,30.583,262.58600000000001,84.933666666666639,-3.0449999999999999,-8.5353333333333339,20.435666666666670,78.086999999999989,177.13900000000001,-9999.0,279.90999999999991
2013-01-30,14:30,30.604,262.26166666666666,84.756666666666646,-3.0356666666666658,-7.9470000000000010,24.363666666666656,91.432666666666663,199.87166666666664,-9999.0,279.90999999999991
2013-01-30,15:00,30.624,262.16433333333333,83.020666666666656,-3.0496666666666665,-9.3410526315789504,28.576999999999998,109.55500000000004,232.38866666666667,-9999.0,279.90999999999991
2013-01-30,15:30,30.645,262.01333333333338,83.696999999999989,-3.2393333333333332,-9.3617857142857144,17.877666666666663,69.151000000000025,145.38466666666670,-9999.0,279.90999999999991
2013-01-30,16:00,30.666,261.79333333333335,83.061000000000007,-3.1283333333333330,-8.9133333333333340,10.514666666666669,40.198666666666668,85.556333333333356,-9999.0,279.90999999999991
2013-01-30,16:30,30.687,261.48400000000004,83.059666666666672,-3.1693333333333338,-8.5909999999999993,6.4293333333333313,24.405999999999995,50.103000000000002,-9999.0,279.90999999999991
2013-01-30,17:00,30.708,261.40999999999997,83.965333333333319,-3.4316666666666666,-9.2006666666666650,1.2323333333333335,4.8463333333333347,12.990333333333334,-9999.0,279.90999999999991
2013-01-30,17:30,30.729,261.38100000000009,83.726666666666674,-3.4546666666666668,-9.0933333333333337,-4.56666666666666610E-002,-0.25300000000000000,1.1813333333333331,-9999.0,279.90999999999991
2013-01-30,18:00,30.749,261.30266666666677,84.492666666666693,-3.7169999999999996,-9.2750000000000021,-0.21666666666666667,-0.73166666666666669,1.93333333333333343E-002,-9999.0,279.90999999999991
2013-01-30,18:30,30.770,261.23733333333331,83.733999999999966,-3.7896666666666663,-9999.0,-0.21433333333333332,-0.88333333333333353,1.20000000000000002E-002,-9999.0,279.90999999999991
2013-01-30,19:00,30.791,261.14399999999995,84.335333333333338,-3.8690000000000002,-9999.0,-0.19500000000000012,-0.83199999999999996,4.66666666666666532E-003,-9999.0,279.90999999999991
2013-01-30,19:30,30.812,261.13033333333334,83.895333333333326,-3.9986666666666673,-9999.0,-0.16733333333333331,-0.96266666666666689,1.13333333333333359E-002,-9999.0,279.90999999999991
2013-01-30,20:00,30.833,261.12133333333327,85.028999999999996,-3.8606666666666665,-9999.0,-0.19500000000000001,-0.71166666666666667,1.10000000000000028E-002,-9999.0,279.90999999999991
2013-01-30,20:30,30.854,261.09600000000006,84.918333333333322,-3.7126666666666677,-9.6199999999999992,-0.22433333333333341,-0.67600000000000027,9.33333333333333237E-003,-9999.0,279.90999999999991
2013-01-30,21:00,30.874,260.99799999999999,84.342000000000027,-3.7043333333333330,-9.7399999999999984,-0.21600000000000005,-0.75800000000000012,1.00000000000000002E-002,-9999.0,279.90999999999991
2013-01-30,21:30,30.895,260.89999999999992,84.393666666666661,-3.8096666666666659,-9.5090000000000003,-0.23900000000000002,-0.72399999999999987,1.36666666666666672E-002,-9999.0,279.90999999999991
2013-01-30,22:00,30.916,260.82766666666674,83.754333333333335,-3.8343333333333338,-9999.0,-0.21600000000000005,-0.80833333333333324,1.06666666666666663E-002,-9999.0,279.90999999999991
2013-01-30,22:30,30.937,260.67600000000004,83.110666666666660,-3.8890000000000011,-9.9499999999999993,-0.23166666666666663,-0.88166666666666671,1.50000000000000012E-002,-9999.0,279.90999999999991
2013-01-30,23:00,30.958,260.45133333333337,82.106666666666669,-3.8640000000000003,-9999.0,-0.18500000000000000,-0.97399999999999987,1.06666666666666680E-002,-9999.0,279.90999999999991
2013-01-30,23:30,30.979,260.23066666666665,81.774666666666675,-3.8073333333333332,-9999.0,-0.19033333333333335,-0.92799999999999983,9.33333333333333411E-003,-9999.0,279.90999999999991
2013-01-31,00:00,31.000,260.01733333333334,81.672333333333327,-3.8900000000000006,-9999.0,-0.21100000000000002,-0.97900000000000020,1.33333333333333325E-002,-9999.0,279.90999999999991
